Flag for Norway Weather past 2 weeks in Kongsvinger, Norway

Now
46 °F

Passing clouds.


Feels Like: 44 °F
Forecast: 31 / 54 °F
Wind: 6 mph from South

Location: Oslo Gardermoen Airport

Current Time: Apr 27, 2015 at 1:27:11 PM

Latest Report: Apr 27, 2015 at 12:50 PM


Visibility: N/A

Pressure: 29.59 "Hg

Humidity: 43%

Dew point: 25 °F

Location of KongsvingerLocation

Historic Weather in Kongsvinger — Graph

°F

Kongsvinger temperature yesterday

Maximum temperature yesterday: 50 °F (at 2:50 PM)
Minimum temperature yesterday: 36 °F (at 4:20 AM)
Average temperature yesterday: 43 °F

Past Weeks' High & Low Weather Summary

 TemperatureHumidityPressure
High72 °F (Apr 20, 2:50 PM)100% (Apr 25, 6:20 PM)30.33 "Hg (Apr 25, 6:20 PM)
Low27 °F (Apr 14, 5:20 AM)15% (Apr 20, 4:20 PM)29.33 "Hg (Apr 25, 8:20 PM)
Average44 °F52%29.86 "Hg
* Reported Apr 12 12:20 PM — Apr 27 12:20 PM, Kongsvinger, Weather by CustomWeather, © 2015

Note: Actual official high and low records may vary slightly from our data, if they occured in-between our weather recording intervals... More about our weather records

Advertising

Kongsvinger weather history for previous 24 hours

 ConditionsComfort  
Time TempWeatherWind HumidityBarometerVisibility
12:20 PM
Mon, Apr 27
45 °FPassing clouds.6 mph42%29.59 "HgN/A
11:50 AM45 °FScattered clouds.6 mph39%29.59 "HgN/A
11:20 AM43 °FScattered clouds.6 mph46%29.59 "HgN/A
10:50 AM45 °FScattered clouds.5 mph42%29.59 "HgN/A
10:20 AM43 °FFog.5 mph46%29.59 "HgN/A
9:50 AM41 °FFog.2 mph49%29.59 "HgN/A
9:20 AM41 °FFog.1 mph57%29.59 "HgN/A
8:50 AM37 °FFog.2 mph65%29.59 "HgN/A
8:20 AM37 °FFog.3 mph60%29.59 "HgN/A
7:50 AM34 °FFog.2 mph70%29.59 "HgN/A
7:20 AM32 °FSunny.1 mph75%29.59 "Hg10 mi
6:50 AM30 °FSunny.2 mph80%29.59 "Hg10 mi
6:20 AM28 °FClear.2 mph80%29.59 "Hg10 mi
5:50 AM27 °FClear.2 mph86%29.59 "Hg10 mi
5:20 AM27 °FClear.3 mph80%29.59 "Hg10 mi
4:50 AM28 °FClear.3 mph74%29.59 "Hg10 mi
4:20 AM30 °FClear.5 mph75%29.59 "Hg10 mi
3:50 AM30 °FClear.3 mph75%29.59 "Hg10 mi
3:20 AM30 °FClear.5 mph75%29.59 "Hg10 mi
2:50 AM30 °FClear.5 mph75%29.59 "Hg10 mi
2:20 AM30 °FPassing clouds.3 mph75%29.59 "HgN/A
1:50 AM30 °FPassing clouds.3 mph80%29.59 "HgN/A
1:20 AM32 °FClear.6 mph80%29.59 "Hg10 mi
12:50 AM34 °FPassing clouds.3 mph75%29.59 "HgN/A
12:20 AM34 °FClear.No wind75%29.59 "Hg10 mi
11:50 PM
Sun, Apr 26
37 °FClear.2 mph70%29.59 "Hg10 mi
11:20 PM37 °FClear.No wind70%29.59 "Hg10 mi
10:50 PM39 °FClear.No wind65%29.59 "Hg10 mi
10:20 PM39 °FPassing clouds.3 mph65%29.59 "HgN/A
9:50 PM39 °FSunny.7 mph65%29.56 "Hg10 mi
9:20 PM43 °FSunny.9 mph57%29.56 "Hg10 mi
8:50 PM45 °FScattered showers. Passing clouds.8 mph53%29.56 "HgN/A
8:20 PM45 °FPassing clouds.8 mph53%29.56 "HgN/A
7:50 PM46 °FScattered showers. Passing clouds.5 mph46%29.56 "HgN/A
7:20 PM46 °FPassing clouds.7 mph46%29.53 "HgN/A
6:50 PM48 °FScattered clouds.15 mph43%29.53 "HgN/A
6:20 PM48 °FScattered clouds.13 mph40%29.53 "HgN/A
5:50 PM50 °FScattered showers. Scattered clouds.9 mph37%29.53 "HgN/A
5:20 PM48 °FSprinkles. Broken clouds.12 mph40%29.53 "HgN/A
4:50 PM48 °FScattered showers. Broken clouds.15 mph37%29.53 "HgN/A
4:20 PM50 °FScattered showers. Broken clouds.20 mph37%29.53 "HgN/A
3:50 PM50 °FScattered showers. Broken clouds.14 mph37%29.50 "HgN/A
3:20 PM50 °FScattered showers. Partly sunny.12 mph32%29.50 "HgN/A
2:50 PM50 °FScattered showers. Broken clouds.2 mph37%29.50 "HgN/A
2:20 PM48 °FPassing clouds.10 mph40%29.50 "HgN/A
1:50 PM46 °FSunny.14 mph43%29.50 "Hg10 mi
1:20 PM46 °FPassing clouds.10 mph46%29.50 "HgN/A
Weather by CustomWeather, © 2015

See weather overviewHow to use our weather pages